Weather in Ustreka

Russia / Novgorod Oblast     58°37′47″N   34°32′51″E
temp.,
°C
wind,
m/s
gust,
m/s
humid.,
%
clouds,
%
prec.,
mm/h
press.,
hPa
HPBL,
m
5 december, sun
sun500:00−14ene249499 0.1 1012281
03:00−15ene3594100 0.3 1014251
06:00−16ene3692100 0.1 1015275
09:00−16ene379298 0.2 1017320
12:00−15ene3588100 0.1 1018358
15:00−15ene369290 0.1 1019351
18:00−17ene389557 0.0 1021297
21:00−17ene289541 0.0 1023286
6 december, mon
mon600:00−19ene389642 0.0 1024253
03:00−20ene38965 0.0 1025218
06:00−20ene38965 0.0 1024217
09:00−20ene38965 0.0 1025206
12:00−16e369189 0.0 1025223
15:00−15e389486 0.1 1024272
18:00−14e3995100 0.1 1023255
21:00−13e3894100 0.5 1022277
7 december, tue
tue700:00−12e3894100 0.3 1021255
03:00−10e3795100 0.9 1019248
06:00−8e3995100 0.5 1017320
09:00−7e3995100 1.2 1015378
12:00−5e3895100 1.3 1013385
15:00−5ene2596100 2.4 1012280
18:00−8nne1198100 0.2 101228
21:00−10nne119986 0.3 101110
8 december, wed
wed800:00−12nw1110093 0.0 101216
03:00−12nw239986 0.1 101246
06:00−12wnw259876 0.0 101397
09:00−13w259867 0.1 101592
12:00−10w279564 0.0 1016219
15:00−11wsw249766 0.0 101882
18:00−14w239974 0.0 102042
21:00−16w119968 0.0 10219
9 december, thu
thu900:00−17nw1110074 0.0 10239
03:00−18nnw1110072 0.0 102311
06:00−18n1110086 0.0 10239
09:00−18nne1110092 0.0 102417
12:00−12nne2496100 0.0 1023112
15:00−11nne2495100 0.0 1023179
18:00−11nne2695100 0.0 1023218
21:00−12n269780 0.0 1023136